Weather History for Saint Simons Island, GA

Change the Weather History Date:

Monday, March 17, 2014

  Actual Average Record
Temperature  
Mean Temperature 60 °F 61 °F  
Max Temperature 65 °F 69 °F 85 °F (1963)
Min Temperature 54 °F 52 °F 31 °F (1954)
Degree Days  
Heating Degree Days 5 6  
Month to date heating degree days 144 118  
Since 1 July heating degree days 1372 1369  
Cooling Degree Days 0 1  
Month to date cooling degree days 5 16  
Year to date cooling degree days 13 25  
Growing Degree Days 10 (Base 50)    
Moisture  
Dew Point 59 °F    
Average Humidity 94    
Maximum Humidity 97    
Minimum Humidity 90    
Precipitation  
Precipitation 0.84 in 0.13 in 1.98 in (1983)
Month to date precipitation 1.97 2.22  
Year to date precipitation 8.45 8.91  
Snow  
Snow 0.00 in - 0.00 in ()
Month to date snowfall 0.0  
Since 1 July snowfall T  
Snow Depth 0.00 in    
Sea Level Pressure  
Sea Level Pressure 29.74 in    
Wind  
Wind Speed 6 mph (South)    
Max Wind Speed 17 mph    
Max Gust Speed 22 mph    
Visibility 7 miles    
Events Rain    
T = Trace of Precipitation, MM = Missing Value Source: NWS Daily Summary

Daily Weather History Graph

Daily Weather History Graph

Search for Another Location

Airport:

Trip Planner

Search our weather history database for the weather conditions in past years. The results will help you decide how hot, cold, wet, or windy it might be!

Date:

Astronomy

Mar. 17, 2014 Rise Set
Actual Time 7:33 AM EDT 7:35 PM EDT
Civil Twilight 7:08 AM EDT 7:59 PM EDT
Nautical Twilight 6:40 AM EDT 8:27 PM EDT
Astronomical Twilight 6:12 AM EDT 8:55 PM EDT
Moon 8:43 PM EDT (3/17) 7:52 AM EDT (3/17)
Length of Visible Light 12h 50m
Length of Day
12h 01m
Full, 99% of the Moon is Illuminated
Mar 17
Full
Mar 23
Last Quarter
Mar 30
New
Apr 7
First Quarter
Apr 15
Full

Hourly Weather History & Observations

Time (EDT) Temp. Dew Point Humidity Pressure Visibility Wind Dir Wind Speed Gust Speed Precip Events Conditions
12:53 AM 62.1 °F 60.1 °F 93% 29.79 in 10.0 mi Calm Calm - N/A   Overcast
1:53 AM 61.0 °F 57.9 °F 90% 29.78 in 10.0 mi Calm Calm - 0.00 in   Overcast
2:53 AM 60.1 °F 57.9 °F 93% 29.76 in 8.0 mi Calm Calm - 0.06 in Rain Light Rain
3:53 AM 60.1 °F 57.9 °F 93% 29.75 in 3.0 mi WNW 3.5 mph - 0.11 in Rain Rain
4:01 AM 60.1 °F 57.9 °F 93% 29.75 in 2.5 mi Calm Calm - 0.03 in Rain Rain
4:22 AM 60.1 °F 59.0 °F 96% 29.74 in 2.5 mi Calm Calm - 0.10 in Rain Rain
4:28 AM 60.1 °F 57.9 °F 93% 29.74 in 3.0 mi NNW 3.5 mph - 0.12 in Rain Rain
4:49 AM 59.0 °F 57.2 °F 94% 29.74 in 2.0 mi Calm Calm - 0.22 in Rain Rain
4:53 AM 59.0 °F 57.9 °F 96% 29.75 in 2.0 mi West 3.5 mph - 0.24 in Rain Rain
5:12 AM 60.1 °F 57.9 °F 93% 29.73 in 4.0 mi Calm Calm - 0.07 in Rain Light Rain
5:53 AM 59.0 °F 57.9 °F 96% 29.71 in 8.0 mi SE 8.1 mph - 0.14 in Rain Light Rain
6:12 AM 59.0 °F 59.0 °F 100% 29.73 in 2.5 mi Calm Calm - 0.05 in Rain Rain
6:29 AM 59.0 °F 57.9 °F 96% 29.73 in 6.0 mi SE 6.9 mph - 0.10 in Rain Light Rain
6:53 AM 59.0 °F 57.9 °F 96% 29.72 in 10.0 mi SSE 9.2 mph - 0.10 in   Overcast
7:53 AM 59.0 °F 57.9 °F 96% 29.70 in 6.0 mi SE 9.2 mph - 0.03 in Rain Light Rain
8:53 AM 60.1 °F 59.0 °F 96% 29.72 in 4.0 mi SSE 5.8 mph - 0.05 in Rain Light Rain
9:53 AM 60.1 °F 57.9 °F 93% 29.73 in 8.0 mi SSE 9.2 mph - 0.01 in Rain Light Rain
10:53 AM 60.1 °F 59.0 °F 96% 29.76 in 10.0 mi South 9.2 mph 19.6 mph 0.02 in   Overcast
11:06 AM 61.0 °F 59.0 °F 93% 29.76 in 10.0 mi SSW 12.7 mph 19.6 mph N/A   Overcast
11:16 AM 61.0 °F 59.0 °F 93% 29.79 in 8.0 mi SW 8.1 mph - 0.00 in Rain Light Rain
11:28 AM 62.1 °F 60.1 °F 93% 29.78 in 10.0 mi WSW 8.1 mph - 0.00 in Rain Light Rain
11:53 AM 63.0 °F 61.0 °F 93% 29.76 in 10.0 mi SW 8.1 mph - 0.00 in   Overcast
12:01 PM 62.1 °F 61.0 °F 96% 29.75 in 10.0 mi SW 6.9 mph - 0.00 in Rain Light Rain
12:08 PM 62.1 °F 61.0 °F 96% 29.75 in 9.0 mi SW 8.1 mph - 0.00 in Rain Light Rain
12:53 PM 64.0 °F 62.1 °F 93% 29.78 in 9.0 mi WSW 6.9 mph - 0.01 in Rain Light Rain
1:50 PM 64.4 °F 62.6 °F 94% 29.76 in 10.0 mi West 5.8 mph - 0.01 in Rain Light Rain
1:53 PM 64.0 °F 62.1 °F 93% 29.75 in 10.0 mi West 4.6 mph - 0.01 in Rain Light Rain
2:08 PM 64.0 °F 62.1 °F 93% 29.74 in 10.0 mi WSW 4.6 mph - 0.00 in Rain Light Rain
2:53 PM 64.9 °F 63.0 °F 93% 29.72 in 10.0 mi Calm Calm - 0.04 in Rain Light Rain
3:03 PM 64.9 °F 62.1 °F 90% 29.72 in 10.0 mi West 3.5 mph - 0.00 in Rain Light Rain
3:53 PM 64.9 °F 62.1 °F 90% 29.73 in 10.0 mi WSW 4.6 mph - 0.00 in Rain Light Rain
4:11 PM 64.0 °F 62.1 °F 93% 29.71 in 9.0 mi SE 6.9 mph - 0.00 in   Overcast
4:53 PM 63.0 °F 62.1 °F 97% 29.74 in 10.0 mi Calm Calm - 0.00 in   Overcast
5:49 PM 62.6 °F 60.8 °F 94% 29.71 in 8.0 mi ESE 4.6 mph - 0.01 in Rain Light Rain
5:53 PM 62.1 °F 61.0 °F 96% 29.72 in 8.0 mi ESE 4.6 mph - 0.01 in   Overcast
6:53 PM 61.0 °F 60.1 °F 97% 29.71 in 4.0 mi ESE 8.1 mph - 0.00 in Rain Light Rain
7:22 PM 61.0 °F 60.1 °F 97% 29.70 in 9.0 mi SE 8.1 mph - 0.01 in   Overcast
7:53 PM 61.0 °F 60.1 °F 97% 29.72 in 10.0 mi SE 9.2 mph - 0.01 in Rain Light Rain
8:23 PM 61.0 °F 59.0 °F 93% 29.72 in 10.0 mi Calm Calm - 0.00 in   Overcast
8:53 PM 61.0 °F 59.0 °F 93% 29.73 in 10.0 mi Calm Calm - 0.00 in   Overcast
9:53 PM 61.0 °F 59.0 °F 93% 29.75 in 7.0 mi North 5.8 mph - N/A   Overcast
10:09 PM 60.1 °F 59.0 °F 96% 29.76 in 6.0 mi North 6.9 mph - N/A   Overcast
10:53 PM 60.1 °F 59.0 °F 96% 29.77 in 1.2 mi NE 9.2 mph - N/A   Overcast
11:02 PM 57.0 °F 55.9 °F 96% 29.77 in 0.8 mi NNE 13.8 mph 20.7 mph N/A   Mist
11:10 PM 57.0 °F 55.0 °F 93% 29.77 in 1.2 mi NNE 11.5 mph - N/A   Overcast
11:53 PM 55.0 °F 54.0 °F 96% 29.76 in 2.5 mi NNE 10.4 mph - N/A   Overcast